This demonstration page uses our WeatherBlox Daily Observations layout. Learn more.

Left ArrowRight Arrow

-33.86785, 151.20732

Hourly Observations for May 15, 2016

Temp ( °F °C ) Dew Point ( °F °C ) Humidity (%) Winds ( mph kmh ) Pressure ( in mb ) Visibility ( mi km ) Precip ( " mm )
12:00 am 00:00 Mostly Clear 59 15 48 9 68 68 NNW 8 13 30.06 1018 7 11 N/A
12:30 am 00:30 Mostly Clear 61 16 45 7 55 55 N 8 13 30.06 1018 7 11 N/A
1:30 am 01:30 Mostly Clear 57 14 45 7 63 63 N 8 13 30.03 1017 7 11 N/A
2:00 am 02:00 Mostly Clear 55 13 43 6 63 63 NNW 8 13 30.03 1017 7 11 N/A
2:30 am 02:30 Mostly Clear 57 14 41 5 55 55 NW 8 13 30.03 1017 7 11 N/A
3:00 am 03:00 Mostly Clear 57 14 41 5 55 55 NW 8 13 30.03 1017 7 11 N/A
4:00 am 04:00 Mostly Clear 57 14 39 4 51 51 NW 7 11 30.00 1016 7 11 N/A
4:30 am 04:30 Mostly Clear 57 14 37 3 48 48 NW 8 13 30.00 1016 7 11 N/A
5:00 am 05:00 Mostly Clear 57 14 37 3 48 48 NW 9 15 30.03 1017 7 11 N/A
5:30 am 05:30 Mostly Clear 55 13 39 4 55 55 NNW 10 17 30.00 1016 7 11 N/A
6:00 am 06:00 Mostly Clear 57 14 39 4 51 51 NNW 7 11 30.03 1017 7 11 N/A
6:30 am 06:30 Mostly Clear 57 14 37 3 48 48 NW 7 11 30.03 1017 7 11 N/A
7:00 am 07:00 Mostly Sunny 57 14 39 4 51 51 NW 6 9 30.03 1017 7 11 N/A
7:30 am 07:30 Mostly Sunny 59 15 39 4 48 48 NW 7 11 30.03 1017 7 11 N/A
8:00 am 08:00 Mostly Sunny 61 16 39 4 45 45 NNW 8 13 30.03 1017 7 11 N/A
8:30 am 08:30 Mostly Sunny 63 17 37 3 39 39 NNW 6 9 30.03 1017 7 11 N/A
9:00 am 09:00 Mostly Sunny 66 19 39 4 37 37 WSW 5 7 30.03 1017 7 11 N/A
10:00 am 10:00 Mostly Sunny 68 20 43 6 40 40 SW 5 7 30.03 1017 7 11 N/A
10:30 am 10:30 Mostly Sunny 68 20 45 7 43 43 WNW 6 9 30.03 1017 7 11 N/A
11:00 am 11:00 Mostly Sunny 70 21 46 8 43 43 W 7 11 30.00 1016 7 11 N/A
11:30 am 11:30 Mostly Sunny 70 21 46 8 43 43 W 6 9 29.97 1015 7 11 N/A
12:00 pm 12:00 Mostly Sunny 77 25 41 5 28 28 NNW 8 13 29.97 1015 7 11 N/A
12:30 pm 12:30 Mostly Sunny 77 25 43 6 30 30 NW 13 20 29.94 1014 7 11 N/A
1:00 pm 13:00 Mostly Sunny 77 25 43 6 30 30 NNW 12 19 29.94 1014 7 11 N/A
1:30 pm 13:30 Mostly Sunny 77 25 43 6 30 30 NNW 12 19 29.91 1013 7 11 N/A
2:00 pm 14:00 Mostly Sunny 77 25 43 6 30 30 NNW 10 17 29.91 1013 7 11 N/A
2:30 pm 14:30 Mostly Sunny 77 25 43 6 30 30 NNW 8 13 29.91 1013 7 11 N/A
3:00 pm 15:00 Mostly Sunny 77 25 43 6 30 30 NNW 7 11 29.91 1013 7 11 N/A
3:30 pm 15:30 Mostly Sunny 75 24 45 7 34 34 N 8 13 29.91 1013 7 11 N/A
4:00 pm 16:00 Mostly Sunny 75 24 45 7 34 34 NNE 7 11 29.91 1013 7 11 N/A
4:30 pm 16:30 Mostly Sunny 72 22 48 9 44 44 ENE 6 9 29.91 1013 7 11 N/A
5:00 pm 17:00 Mostly Sunny 72 22 50 10 47 47 NE 8 13 29.94 1014 7 11 N/A
5:30 pm 17:30 Mostly Clear 72 22 48 9 44 44 NNE 7 11 29.94 1014 7 11 N/A
6:00 pm 18:00 Mostly Clear 70 21 48 9 46 46 NNE 6 9 29.94 1014 7 11 N/A
6:30 pm 18:30 Mostly Clear 70 21 48 9 46 46 NNE 8 13 29.97 1015 1 1 N/A
7:00 pm 19:00 Mostly Clear 70 21 50 10 50 50 N 6 9 29.97 1015 1 1 N/A
7:30 pm 19:30 Mostly Clear 66 19 52 11 60 60 W 6 9 30.00 1016 1 1 N/A
8:00 pm 20:00 Mostly Clear 68 20 48 9 49 49 W 12 19 30.00 1016 1 1 N/A
8:30 pm 20:30 Mostly Clear 68 20 46 8 46 46 WNW 10 17 29.97 1015 1 1 N/A
9:00 pm 21:00 Mostly Clear 68 20 45 7 43 43 W 10 17 30.00 1016 1 1 N/A
9:30 pm 21:30 Mostly Clear 68 20 46 8 46 46 N 8 13 30.00 1016 1 1 N/A
10:00 pm 22:00 Mostly Clear 66 19 46 8 49 49 WNW 9 15 30.00 1016 7 11 N/A
10:30 pm 22:30 Mostly Clear 66 19 45 7 46 46 WNW 8 13 30.00 1016 7 11 N/A
11:00 pm 23:00 Mostly Clear 63 17 46 8 56 56 W 5 7 30.03 1017 7 11 N/A
11:30 pm 23:30 Mostly Clear 61 16 48 9 63 63 ESE 6 9 30.03 1017 7 11 N/A

Powered by Vaisala Xweather